Location: Unspecified
(0.0000°N, 0.0000°E)
Time: 15:33:21
(UTC+00:00)

Envisat - Pass Details

Date: 15 December 2018
Orbit: 764 x 766 km, 98.2° (Epoch: 13 December)

Event Time Altitude Azimuth Distance (km) Brightness Sun altitude
Rises 20:03:55 0° 192° (SSW) 3,230 6.8 -29.3°
Reaches altitude 10° 20:06:40 10° 207° (SSW) 2,301 6.1 -29.9°
Maximum altitude 20:10:35 23° 258° (WSW) 1,589 5.2 -30.7°
Drops below altitude 10° 20:14:30 10° 309° (NW) 2,293 5.7 -31.6°
Sets 20:17:14 0° 323° (NW) 3,216 6.3 -32.2°
